Regional Weather Roundup
Issued by NWS Glasgow, MT

Home | Current Version | Previous Version | Text Only | Print | Product List | Glossary On
Versions: 1 2 3 4 5 6 7 8 9 10 11 12 13 14 15 16 17 18 19 20 21 22 23 24 25 26 27 28 29 30 31 32 33 34 35 36 37 38 39 40 41 42 43 44 45 46 47 48 49 50
000
ASUS45 KGGW 292315
RWRGGW
HOURLY REGIONAL WEATHER ROUNDUP FOR NORTHEAST MONTANA
NATIONAL WEATHER SERVICE GLASGOW MONTANA
500 PM MDT MON JUN 29 2015

NOTE: "FAIR" INDICATES FEW OR NO CLOUDS BELOW 12,000 FEET WITH NO
SIGNIFICANT WEATHER AND/OR OBSTRUCTIONS TO VISISBILITY.

NORTHEAST MONTANA


CITY           SKY/WX    TMP DP  RH WIND       PRES   REMARKS
GLASGOW        MOSUNNY   94  46  19 NE10      29.94F
PLENTYWOOD       N/A     89  46  22 N8G17       N/A
WOLF POINT     MOSUNNY   98  52  21 N12       29.93F
JORDAN           N/A     98  40  13 N8        29.96F
WINNETT          N/A    100  42  13 E3          N/A
SIDNEY         SUNNY     97  52  21 NW10      29.91S
GLENDIVE       SUNNY     97  39  13 NW14G22   29.95S
MALTA            N/A     97  45  16 W7          N/A
SCOBEY           N/A     87  52  29 N9        29.98S

FORT PECK REPORTS


CITY           SKY/WX    TMP DP  RH WIND       PRES   REMARKS
FORT PECK        N/A     96  49  20 N12         N/A
THE PINES        N/A     96  44  16 E6G14       N/A

SOUTHEAST MONTANA


CITY           SKY/WX    TMP DP  RH WIND       PRES   REMARKS
BILLINGS       MOSUNNY   98  38  12 E13       30.02F
MILES CITY     MOSUNNY   97  43  15 N12       29.96F
BAKER          MOSUNNY   92  57  30 NW13      29.99F
LIVINGSTON     MOSUNNY   96  46  18 NE14      30.04S

CENTRAL MONTANA


CITY           SKY/WX    TMP DP  RH WIND       PRES   REMARKS
HAVRE          CLOUDY    94  49  21 E13       29.95R
LEWISTOWN      PTSUNNY   91  51  25 SE12      30.04S
GREAT FALLS    CLOUDY    94  50  22 NW15      30.01F
CUT BANK       CLOUDY    83  52  34 S12       30.03F
HELENA         CLOUDY    90  48  23 S14       30.01R
BUTTE          CLOUDY    84  52  33 N8        30.18S
BOZEMAN        CLOUDY    94  42  16 W7        30.04R

WESTERN MONTANA


CITY           SKY/WX    TMP DP  RH WIND       PRES   REMARKS
MISSOULA       MOSUNNY   94  48  20 W9        29.97F
KALISPELL      NOT AVBL

NORTH DAKOTA


CITY           SKY/WX    TMP DP  RH WIND       PRES   REMARKS
WILLISTON      SUNNY     96  59  29 NE15      29.91S
DICKINSON      SUNNY     92  60  34 W6        29.93F
MINOT          SUNNY     88  56  33 VRB5      29.89F
BISMARCK       SUNNY     91  56  30 N6        29.92F

SOUTHERN SASKATCHEWAN


CITY           SKY/WX    TMP DP  RH WIND       PRES   REMARKS
REGINA           N/A     73  50  43 N14G23    30.03R SMOKE
MOOSE JAW      SMOKE     75  50  41 N9        30.05R VSB 1/2
ESTEVAN        CLOUDY    88  61  40 N13G20    29.93
SWIFT CURRENT  HAZE      77  45  31 NE16      30.08R VSB 1




USA.gov is the U.S. government's official web portal to all federal, state and local government web resources and services.